Petersburg, WV

6:44 AM EDT on August 23, 2017 (GMT -0400)
Petersburg

Weather History for KW99 - April, 2014

Change the Weather History Date:

Friday, April 11, 2014

  Actual Average (KEKN) Record (KEKN)
Temperature  
Mean Temperature 68 °F -  
Max Temperature 83 °F 60 °F 84 °F (2011)
Min Temperature 52 °F 30 °F 14 °F (1989)
Cooling Degree Days 2    
Growing Degree Days 18 (Base 50)    
Moisture  
Dew Point 45 °F    
Average Humidity 44    
Maximum Humidity 89    
Minimum Humidity 26    
Precipitation  
Precipitation 0.00 in - - ()
Sea Level Pressure  
Sea Level Pressure 30.02 in    
Wind  
Wind Speed 11 mph (WSW)    
Max Wind Speed 21 mph    
Max Gust Speed 31 mph    
Visibility 10 miles    
Events Rain    
Averages and records for this station are not official NWS values.
T = Trace of Precipitation, MM = Missing Value Source: NWS Daily Summary

Daily Weather History Graph

Daily Weather History Graph

Search for Another Location

Airport or City:

Trip Planner

Search our weather history database for the weather conditions in past years. The results will help you decide how hot, cold, wet, or windy it might be!

Date:

Astronomy

Apr. 11, 2014 Rise Set
Actual Time 6:45 AM EDT 7:49 PM EDT
Civil Twilight 6:18 AM EDT 8:17 PM EDT
Nautical Twilight 5:45 AM EDT 8:49 PM EDT
Astronomical Twilight 5:12 AM EDT 9:23 PM EDT
Moon 4:30 PM EDT (4/11) 4:38 AM EDT (4/11)
Length of Visible Light 13h 58m
Length of Day
13h 04m
Waxing Gibbous, 87% of the Moon is Illuminated
Apr 11
Waxing Gibbous
Apr 15
Full
Apr 22
Last Quarter
Apr 29
New
May 6
First Quarter

Hourly Weather History & Observations

Time (EDT) Temp. Dew Point Humidity Pressure Visibility Wind Dir Wind Speed Gust Speed Precip Events Conditions
12:15 AM 69.3 °F 38.1 °F 32% 30.00 in 10.0 mi South 10.4 mph 18.4 mph N/A   Clear
12:35 AM 69.3 °F 37.9 °F 32% 30.00 in 10.0 mi South 13.8 mph 19.6 mph N/A   Clear
12:55 AM 68.9 °F 37.8 °F 32% 30.00 in 10.0 mi SSW 13.8 mph 17.3 mph N/A   Clear
1:15 AM 68.9 °F 37.8 °F 32% 30.00 in 10.0 mi South 17.3 mph - N/A   Clear
1:35 AM 68.7 °F 37.8 °F 32% 29.99 in 10.0 mi South 17.3 mph 23.0 mph N/A   Clear
1:55 AM 68.9 °F 37.8 °F 32% 29.99 in 10.0 mi SSW 15.0 mph 23.0 mph N/A   Clear
2:15 AM 68.4 °F 37.4 °F 32% 29.99 in 10.0 mi South 16.1 mph 21.9 mph N/A   Clear
2:35 AM 67.6 °F 37.2 °F 33% 29.99 in 10.0 mi South 18.4 mph 25.3 mph N/A   Clear
2:55 AM 66.7 °F 36.9 °F 33% 30.00 in 10.0 mi South 15.0 mph 21.9 mph N/A   Clear
3:15 AM 65.8 °F 36.7 °F 34% 30.00 in 10.0 mi South 13.8 mph 23.0 mph N/A   Clear
3:35 AM 65.8 °F 36.5 °F 34% 30.00 in 10.0 mi South 15.0 mph - N/A   Clear
3:55 AM 65.8 °F 36.5 °F 34% 30.00 in 10.0 mi South 11.5 mph - N/A   Clear
4:15 AM 65.7 °F 36.5 °F 34% 30.01 in 10.0 mi Calm Calm - N/A   Clear
4:35 AM 61.9 °F 38.1 °F 41% 30.01 in 10.0 mi East 3.5 mph - N/A   Clear
4:55 AM 64.9 °F 37.8 °F 37% 30.02 in 10.0 mi West 5.8 mph - N/A   Clear
5:15 AM 71.1 °F 37.9 °F 30% 30.02 in 10.0 mi West 11.5 mph 20.7 mph N/A   Clear
5:35 AM 73.2 °F 37.8 °F 28% 30.03 in 10.0 mi WSW 12.7 mph 24.2 mph N/A   Clear
5:55 AM 72.7 °F 38.7 °F 29% 30.03 in 10.0 mi West 11.5 mph 19.6 mph N/A   Clear
6:15 AM 72.1 °F 39.4 °F 30% 30.04 in 10.0 mi WSW 9.2 mph 18.4 mph N/A   Clear
6:35 AM 71.6 °F 39.6 °F 31% 30.05 in 10.0 mi WSW 6.9 mph 21.9 mph N/A   Clear
6:55 AM 72.0 °F 39.9 °F 31% 30.05 in 10.0 mi SW 8.1 mph - N/A   Clear
7:35 AM 71.6 °F 40.8 °F 33% 30.05 in 10.0 mi West 12.7 mph 16.1 mph N/A   Clear
7:55 AM 72.3 °F 41.2 °F 32% 30.05 in 10.0 mi SW 11.5 mph 16.1 mph N/A   Clear
8:15 AM 72.5 °F 42.1 °F 33% 30.06 in 10.0 mi SW 6.9 mph - N/A   Clear
8:35 AM 71.8 °F 42.8 °F 35% 30.06 in 10.0 mi West 16.1 mph 24.2 mph N/A   Clear
8:55 AM 72.7 °F 43.0 °F 34% 30.06 in 10.0 mi West 12.7 mph 19.6 mph N/A   Clear
9:15 AM 73.2 °F 44.2 °F 35% 30.06 in 10.0 mi WSW 6.9 mph - N/A   Clear
9:35 AM 73.4 °F 44.8 °F 36% 30.05 in 10.0 mi WSW 4.6 mph - N/A   Clear
10:15 AM 74.5 °F 43.9 °F 33% 30.05 in 10.0 mi WSW 6.9 mph - N/A   Clear
10:35 AM 74.5 °F 45.1 °F 35% 30.05 in 10.0 mi WSW 9.2 mph 16.1 mph N/A   Clear
10:55 AM 75.7 °F 45.5 °F 34% 30.05 in 10.0 mi SW 11.5 mph 17.3 mph N/A   Clear
11:15 AM 77.2 °F 46.2 °F 33% 30.04 in 10.0 mi West 8.1 mph - N/A   Clear
11:35 AM 77.7 °F 48.0 °F 35% 30.03 in 10.0 mi West 5.8 mph 10.4 mph N/A   Clear
11:55 AM 78.4 °F 46.8 °F 33% 30.01 in 10.0 mi Calm Calm - N/A   Clear
12:15 PM 79.5 °F 45.1 °F 30% 30.00 in 10.0 mi WSW 8.1 mph - N/A   Clear
12:35 PM 80.8 °F 45.0 °F 28% 29.98 in 10.0 mi WSW 4.6 mph - N/A   Clear
12:55 PM 80.6 °F 45.1 °F 29% 29.97 in 10.0 mi WSW 8.1 mph - N/A   Clear
1:15 PM 82.6 °F 44.6 °F 26% 29.96 in 10.0 mi West 12.7 mph 17.3 mph N/A   Clear
1:35 PM 83.1 °F 45.3 °F 26% 29.96 in 10.0 mi West 8.1 mph 16.1 mph N/A   Clear
1:55 PM 83.7 °F 44.8 °F 26% 29.96 in 10.0 mi West 9.2 mph 17.3 mph N/A   Clear
2:15 PM 83.7 °F 45.3 °F 26% 29.95 in 10.0 mi NW 8.1 mph 17.3 mph N/A   Scattered Clouds
2:35 PM 81.0 °F 48.2 °F 32% 29.94 in 10.0 mi WNW 13.8 mph - N/A   Mostly Cloudy
2:55 PM 79.3 °F 47.5 °F 33% 29.95 in 10.0 mi WNW 17.3 mph 25.3 mph N/A   Overcast
3:15 PM 75.7 °F 47.1 °F 36% 29.96 in 10.0 mi NW 20.7 mph 29.9 mph N/A   Mostly Cloudy
3:35 PM 73.4 °F 49.5 °F 43% 29.96 in 10.0 mi WNW 19.6 mph - N/A   Scattered Clouds
3:55 PM 72.9 °F 48.6 °F 42% 29.97 in 10.0 mi WNW 18.4 mph - N/A   Mostly Cloudy
4:15 PM 70.2 °F 52.2 °F 53% 29.97 in 10.0 mi West 15.0 mph 31.1 mph N/A Rain Rain
4:35 PM 71.1 °F 51.8 °F 50% 29.97 in 10.0 mi NW 11.5 mph - N/A   Scattered Clouds
4:55 PM 70.5 °F 53.1 °F 54% 30.00 in 10.0 mi West 3.5 mph - N/A   Clear
5:15 PM 70.9 °F 52.9 °F 53% 30.00 in 10.0 mi West 10.4 mph - N/A   Clear
5:35 PM 70.9 °F 52.7 °F 53% 30.00 in 10.0 mi West 9.2 mph - N/A Rain Light Rain
5:55 PM 70.7 °F 53.1 °F 54% 30.01 in 10.0 mi WSW 9.2 mph - N/A   Clear
6:15 PM 69.6 °F 53.6 °F 57% 30.01 in 10.0 mi West 9.2 mph - N/A   Mostly Cloudy
6:35 PM 68.7 °F 54.1 °F 60% 30.02 in 10.0 mi WSW 12.7 mph - N/A Rain Light Rain
6:55 PM 68.7 °F 54.5 °F 60% 30.02 in 10.0 mi West 11.5 mph - N/A Rain Light Rain
7:15 PM 69.3 °F 53.4 °F 57% 30.02 in 10.0 mi WNW 17.3 mph 27.6 mph N/A   Overcast
7:35 PM 70.0 °F 53.1 °F 55% 30.03 in 10.0 mi WSW 8.1 mph - N/A   Mostly Cloudy
7:55 PM 69.8 °F 53.2 °F 56% 30.04 in 10.0 mi West 8.1 mph 17.3 mph N/A   Overcast
8:15 PM 67.6 °F 53.8 °F 61% 30.05 in 10.0 mi SW 5.8 mph - N/A   Overcast
8:35 PM 67.6 °F 53.4 °F 60% 30.05 in 10.0 mi SW 4.6 mph - N/A   Mostly Cloudy
8:55 PM 63.1 °F 53.4 °F 71% 30.05 in 10.0 mi South 4.6 mph - N/A   Scattered Clouds
9:15 PM 63.3 °F 54.0 °F 71% 30.05 in 10.0 mi ENE 3.5 mph - N/A   Clear
9:35 PM 59.7 °F 53.1 °F 79% 30.06 in 10.0 mi ESE 5.8 mph - N/A   Clear
9:55 PM 57.0 °F 52.0 °F 83% 30.07 in 10.0 mi Calm Calm - N/A   Clear
10:15 PM 56.8 °F 51.8 °F 83% 30.08 in 10.0 mi Calm Calm - N/A   Clear
10:35 PM 54.7 °F 50.0 °F 84% 30.08 in 10.0 mi WNW 3.5 mph - N/A   Clear
10:55 PM 54.1 °F 50.2 °F 86% 30.08 in 10.0 mi NW 3.5 mph - N/A   Clear
11:15 PM 53.6 °F 50.2 °F 88% 30.08 in 10.0 mi Calm Calm - N/A   Clear
11:35 PM 52.9 °F 49.8 °F 89% 30.08 in 10.0 mi WNW 4.6 mph - N/A   Clear
11:55 PM 53.6 °F 50.5 °F 89% 30.08 in 10.0 mi Calm Calm - N/A   Clear